Regional Weather Roundup
Issued by NWS

Home | Current Version | Previous Version | Text Only | Print | Product List | Glossary On
Versions: 1 2 3 4 5 6 7 8 9 10 11 12 13 14 15 16 17 18 19 20 21 22 23 24 25 26 27 28 29 30 31 32 33 34 35 36 37 38 39 40 41 42 43 44 45 46 47 48 49 50
000
ASUS43 KLOT 210710
RWRIL

ILLINOIS REGIONAL WEATHER ROUNDUP
NATIONAL WEATHER SERVICE CHICAGO/ROMEOVILLE IL
200 AM CDT SUN SEP 21 2014

NOTE: "FAIR" INDICATES FEW OR NO CLOUDS BELOW 12,000 FEET WITH NO
SIGNIFICANT WEATHER AND/OR OBSTRUCTIONS TO VISIBILITY.

* THESE STATIONS ARE NOT UNDER NWS QUALITY CONTROL. THEY ALSO MAY NOT
  REPORT WEATHER SUCH AS PRECIPITATION OR FOG.

ILZ001-002-007-009-015-016-024-210800-
NORTHWEST ILLINOIS

CITY           SKY/WX    TMP DP  RH WIND       PRES   REMARKS
MOLINE         CLEAR     62  53  72 NW17G23   29.90R
STERLING*      PTCLDY    63  55  77 NW17      29.84R
SAVANNA*       CLEAR     61  54  77 NW10      29.85R
$$

ILZ003-004-008-010-011-017-018-210800-
NORTH CENTRAL ILLINOIS

CITY           SKY/WX    TMP DP  RH WIND       PRES   REMARKS
ROCKFORD       PTCLDY    62  57  83 W14       29.81R
ROCHELLE*      PTCLDY    62  58  86 NW18G30   29.81R
DE KALB*       PTCLDY    61  57  86 NW25G35   29.79R
PERU*          CLEAR     66  59  77 NW18G25   29.82R
$$

ILZ005-006-012>014-019>023-210800-
NORTHEAST ILLINOIS

CITY           SKY/WX    TMP DP  RH WIND       PRES   REMARKS
CHICAGO-OHARE  MOCLDY    65  62  90 W10       29.72R
CHICAGO-MIDWAY MOCLDY    67  62  84 W13       29.72R
AURORA         PTCLDY    64  58  80 W16G22    29.77R
LANSING*       MOCLDY    68  66  93 W10       29.72F
JOLIET*        MOCLDY    67  61  81 W7        29.77R
WAUKEGAN       CLOUDY    63  60  90 VRB7      29.70R
DUPAGE AIRPORT   N/A     64  60  87 W10       29.74R
KANKAKEE*      PTCLDY    69  67  91 W10G17    29.77F
WHEELING       MOCLDY    67  63  87 W9        29.72S
MORRIS*        MOCLDY    67  63  86 W12G17    29.77R
ROMEOVILLE*    CLOUDY    66  61  84 W14G20    29.75R
NORTHERLY ISL    N/A     67  60  78 W7          N/A
$$

LMZ740>746-210800-
SOUTHERN LAKE MICHIGAN

STATION/POSITION SKY/WX   TEMP    WIND        PRES    VSBY  WAVE
                          AIR SEA DIR/SP/G                  HT/PER
                          (F)     (DEG/KT/KT) (MB)    (MI)  (FT/S)
SOUTHERN BUOY              63 63  270/ 14/ 16 1004.4R         2/ 3
WAUKEGAN HARBOR            65     270/ 11/ 14   N/A
HARRISON CRIB              66     270/ 19/ 22   N/A
BURNHAM HARBOR             66     250/  7/ 24   N/A
CALUMET HARBOR             65     220/  7/ 10 1005.1R
MICHIGAN CITY              67     230/ 25/ 33   N/A
MICHIGAN CITY 6N           67 66  240/ 17/ 23   N/A           3/ 3
ST. JOSEPH                 68 65  230/ 21/ 33   N/A           3/ 3
$$

ILZ025>027-034>036-040-047-049-050-058-095>099-210800-
WEST-CENTRAL ILLINOIS

CITY           SKY/WX    TMP DP  RH WIND       PRES   REMARKS
QUINCY         PTCLDY    71  67  87 NW13      29.92R
GALESBURG*     PTCLDY    64  57  79 NW13G21   29.90R
MACOMB*        CLEAR     67  62  85 NW12G17   29.92R
JACKSONVILLE*  CLEAR     72  70  94 SW7       29.88S FOG
PITTSFIELD*    CLEAR     72  68  89 W7        29.90S FOG
$$

ILZ028>032-037-038-041>044-048-051>054-059>061-210800-
CENTRAL ILLINOIS

CITY           SKY/WX    TMP DP  RH WIND       PRES   REMARKS
PONTIAC        PTCLDY    70  68  94 W8        29.79F
DECATUR        CLEAR     71  68  90 SW9       29.85S
PEORIA         CLEAR     71  64  78 W8        29.85R
LACON*         CLEAR     68  62  82 NW10G16   29.83R
LINCOLN*       CLEAR     72  69  90 W5        29.83R
SPRINGFIELD    CLEAR     71  68  90 W8        29.85F
TAYLORVILLE    CLEAR     70  68  94 SW8       29.86F
$$

ILZ033-039-045-046-055>057-062-063-210800-
EAST-CENTRAL ILLINOIS

CITY           SKY/WX    TMP DP  RH WIND       PRES   REMARKS
CHAMPAIGN      CLEAR     69  67  93 SW9       29.84S FOG
DANVILLE*      HVY RAIN  69  68  97 SW9       29.80S
RANTOUL*       CLEAR     70  67  90 SW8       29.83S FOG
MATTOON        MOCLDY    70  69  97 SW7       29.85F
PARIS*         PTCLDY    70  69  95 SW9       29.85S
$$

ILZ079-100>102-210800-
SOUTHWEST ILLINOIS

CITY           SKY/WX    TMP DP  RH WIND       PRES   REMARKS
ALTON          MOCLDY    73  69  89 W12       29.90S
BELLEVILLE     MOCLDY    72  68  89 S1        29.90S
CAHOKIA*       PTCLDY    74  68  81 SW5       29.90S
SPARTA*        CLEAR     72  68  87 SW6       29.94S
$$

ILZ064>066-069>071-074>076-080>082-084>086-088>090-092>094-210800-
SOUTH-CENTRAL ILLINOIS

CITY           SKY/WX    TMP DP  RH WIND       PRES   REMARKS
CARBONDALE     PTCLDY    71  67  87 SW7       29.94S
CAIRO*         CLEAR     74  67  79 S7        29.95F
EFFINGHAM*     RAIN      71  67  88 W13G20    29.87F
MARION         PTCLDY    73  68  83 SW6       29.95R
MT. VERNON     PTCLDY    68  64  88 SW7       29.91F
CENTRALIA*     PTCLDY    72  66  81 SW9       29.90F
SALEM*         MOCLDY    75  70  83 SW10G16   29.89F
METROPOLIS*    CLEAR     72  68  87 SW3       29.95F
$$

ILZ067-068-072-073-078-083-087-091-210800-
SOUTHEAST ILLINOIS

CITY           SKY/WX    TMP DP  RH WIND       PRES   REMARKS
LAWRENCEVILLE  MOCLDY    73  67  81 SW14      29.87F
FLORA*         MOCLDY    70  66  88 SW6       29.89S
FAIRFIELD*     MOCLDY   N/A N/A N/A SW7       29.90F
HARRISBURG*    PTCLDY    71  69  92 SW5       29.94F
ROBINSON*      MOCLDY    74  69  85 SW9       29.87S
CARMI*         PTCLDY    73  69  86 SW10      29.91F
$$

ABBREVIATIONS USED IN REMARKS
   TC - TEMPERATURE IN CELSIUS
  WCI - WIND CHILL INDEX
   HX - HEAT INDEX
  VSB - VISIBILITY
$$



USA.gov is the U.S. government's official web portal to all federal, state and local government web resources and services.